TimeCST,TemperatureF,Dew PointF,Humidity,Sea Level PressureIn,VisibilityMPH,Wind Direction,Wind SpeedMPH,Gust SpeedMPH,PrecipitationIn,Events,Conditions,WindDirDegrees,DateUTC
12:14 AM,26.6,26.6,100,30.16,10.0,Calm,Calm,-,N/A,,Overcast,0,2013-11-07 06:14:00
12:35 AM,26.6,24.8,93,30.16,10.0,Calm,Calm,-,N/A,,Overcast,0,2013-11-07 06:35:00
12:55 AM,26.6,24.8,93,30.16,10.0,Calm,Calm,-,N/A,,Scattered Clouds,0,2013-11-07 06:55:00
1:14 AM,24.8,24.8,100,30.16,10.0,Calm,Calm,-,N/A,,Mostly Cloudy,0,2013-11-07 07:14:00
1:35 AM,24.8,24.8,100,30.16,10.0,Calm,Calm,-,N/A,,Overcast,0,2013-11-07 07:35:00
1:55 AM,24.8,24.8,100,30.17,10.0,North,4.6,-,N/A,,Overcast,10,2013-11-07 07:55:00
2:14 AM,24.8,24.8,100,30.17,10.0,North,5.8,-,N/A,,Overcast,10,2013-11-07 08:14:00
2:35 AM,24.8,23.0,93,30.17,10.0,North,4.6,-,N/A,,Mostly Cloudy,10,2013-11-07 08:35:00
2:54 AM,24.8,24.8,100,30.17,10.0,North,4.6,-,N/A,,Mostly Cloudy,10,2013-11-07 08:54:00
3:15 AM,26.6,24.8,93,30.18,10.0,North,3.5,-,N/A,,Overcast,360,2013-11-07 09:15:00
3:34 AM,24.8,24.8,100,30.18,10.0,Calm,Calm,-,N/A,,Mostly Cloudy,0,2013-11-07 09:34:00
3:54 AM,24.8,24.8,100,30.17,10.0,Calm,Calm,-,N/A,,Mostly Cloudy,0,2013-11-07 09:54:00
4:15 AM,24.8,24.8,100,30.18,10.0,North,5.8,-,N/A,,Scattered Clouds,350,2013-11-07 10:15:00
4:35 AM,24.8,23.0,93,30.19,10.0,North,3.5,-,N/A,,Scattered Clouds,360,2013-11-07 10:35:00
4:54 AM,23.0,23.0,100,30.19,10.0,NNW,6.9,-,N/A,,Clear,330,2013-11-07 10:54:00
5:15 AM,23.0,21.2,93,30.21,10.0,NNW,6.9,-,N/A,,Clear,330,2013-11-07 11:15:00
5:35 AM,23.0,21.2,93,30.21,10.0,NNW,4.6,-,N/A,,Clear,340,2013-11-07 11:35:00
5:54 AM,23.0,21.2,93,30.22,10.0,NNW,6.9,-,N/A,,Clear,330,2013-11-07 11:54:00
6:15 AM,23.0,21.2,93,30.22,10.0,NNW,4.6,-,N/A,,Clear,330,2013-11-07 12:15:00
6:35 AM,23.0,21.2,93,30.21,10.0,Calm,Calm,-,N/A,,Clear,0,2013-11-07 12:35:00
6:54 AM,23.0,21.2,93,30.22,10.0,Calm,Calm,-,N/A,,Clear,0,2013-11-07 12:54:00
7:15 AM,23.0,21.2,93,30.22,10.0,Calm,Calm,-,N/A,,Clear,0,2013-11-07 13:15:00
7:35 AM,21.2,19.4,93,30.23,5.0,WSW,4.6,-,N/A,,Clear,250,2013-11-07 13:35:00
7:55 AM,21.2,19.4,93,30.23,5.0,SW,4.6,-,N/A,,Clear,230,2013-11-07 13:55:00
8:15 AM,21.2,21.2,100,30.24,7.0,WSW,3.5,-,N/A,,Clear,250,2013-11-07 14:15:00
8:34 AM,23.0,21.2,93,30.24,7.0,West,4.6,-,N/A,,Clear,270,2013-11-07 14:34:00
8:55 AM,26.6,23.0,86,30.23,10.0,West,9.2,-,N/A,,Mostly Cloudy,270,2013-11-07 14:55:00
9:15 AM,26.6,24.8,93,30.23,10.0,West,5.8,-,N/A,,Mostly Cloudy,270,2013-11-07 15:15:00
9:34 AM,26.6,24.8,93,30.23,10.0,West,3.5,-,N/A,,Scattered Clouds,260,2013-11-07 15:34:00
9:55 AM,28.4,24.8,86,30.23,10.0,WSW,3.5,-,N/A,,Scattered Clouds,250,2013-11-07 15:55:00
10:15 AM,28.4,24.8,86,30.23,10.0,West,8.1,-,N/A,,Scattered Clouds,260,2013-11-07 16:15:00
10:34 AM,28.4,23.0,80,30.23,10.0,WSW,5.8,-,N/A,,Mostly Cloudy,250,2013-11-07 16:34:00
10:55 AM,30.2,24.8,80,30.23,10.0,WSW,4.6,-,N/A,,Scattered Clouds,250,2013-11-07 16:55:00
11:15 AM,30.2,24.8,80,30.23,10.0,Calm,Calm,-,N/A,,Clear,0,2013-11-07 17:15:00
11:34 AM,32.0,24.8,75,30.22,10.0,Calm,Calm,-,N/A,,Clear,0,2013-11-07 17:34:00
11:55 AM,33.8,24.8,70,30.22,10.0,West,4.6,-,N/A,,Clear,260,2013-11-07 17:55:00
12:15 PM,35.6,24.8,65,30.21,10.0,WNW,4.6,-,N/A,,Clear,300,2013-11-07 18:15:00
12:34 PM,35.6,24.8,65,30.20,10.0,WSW,3.5,-,N/A,,Clear,250,2013-11-07 18:34:00
12:55 PM,35.6,26.6,70,30.20,10.0,West,5.8,-,N/A,,Clear,280,2013-11-07 18:55:00
1:14 PM,37.4,26.6,65,30.20,10.0,West,6.9,-,N/A,,Clear,270,2013-11-07 19:14:00
1:35 PM,37.4,26.6,65,30.20,10.0,WNW,6.9,-,N/A,,Clear,290,2013-11-07 19:35:00
1:55 PM,37.4,26.6,65,30.19,10.0,West,4.6,-,N/A,,Clear,280,2013-11-07 19:55:00
2:14 PM,39.2,26.6,61,30.18,10.0,Calm,Calm,-,N/A,,Clear,0,2013-11-07 20:14:00
2:35 PM,39.2,26.6,61,30.18,10.0,WNW,5.8,-,N/A,,Scattered Clouds,300,2013-11-07 20:35:00
2:54 PM,39.2,26.6,61,30.17,10.0,NW,5.8,-,N/A,,Clear,310,2013-11-07 20:54:00
3:15 PM,39.2,26.6,61,30.17,10.0,NNE,3.5,-,N/A,,Mostly Cloudy,20,2013-11-07 21:15:00
3:35 PM,39.2,26.6,61,30.17,10.0,North,4.6,-,N/A,,Overcast,360,2013-11-07 21:35:00
3:54 PM,39.2,26.6,61,30.17,10.0,NNE,5.8,-,N/A,,Overcast,20,2013-11-07 21:54:00
4:15 PM,39.2,26.6,61,30.17,10.0,NNE,4.6,-,N/A,,Overcast,20,2013-11-07 22:15:00
4:35 PM,37.4,26.6,65,30.16,10.0,Calm,Calm,-,N/A,,Scattered Clouds,0,2013-11-07 22:35:00
4:54 PM,37.4,26.6,65,30.16,10.0,Calm,Calm,-,N/A,,Clear,0,2013-11-07 22:54:00
5:15 PM,35.6,26.6,70,30.17,10.0,Calm,Calm,-,N/A,,Clear,0,2013-11-07 23:15:00
5:35 PM,35.6,26.6,70,30.17,10.0,Calm,Calm,-,N/A,,Clear,0,2013-11-07 23:35:00
5:54 PM,33.8,26.6,75,30.17,10.0,Calm,Calm,-,N/A,,Clear,0,2013-11-07 23:54:00
6:15 PM,33.8,26.6,75,30.17,10.0,SE,3.5,-,N/A,,Clear,140,2013-11-08 00:15:00
6:35 PM,33.8,26.6,75,30.16,10.0,Calm,Calm,-,N/A,,Clear,0,2013-11-08 00:35:00
6:54 PM,32.0,26.6,80,30.17,10.0,SE,3.5,-,N/A,,Clear,140,2013-11-08 00:54:00
7:15 PM,30.2,28.4,93,30.17,10.0,SSE,3.5,-,N/A,,Clear,160,2013-11-08 01:15:00
7:35 PM,30.2,26.6,86,30.16,10.0,Calm,Calm,-,N/A,,Clear,0,2013-11-08 01:35:00
7:54 PM,30.2,26.6,86,30.16,10.0,Calm,Calm,-,N/A,,Clear,0,2013-11-08 01:54:00
8:15 PM,26.6,24.8,93,30.16,7.0,Calm,Calm,-,N/A,,Clear,0,2013-11-08 02:15:00
8:34 PM,28.4,28.4,100,30.15,10.0,SSE,3.5,-,N/A,,Clear,150,2013-11-08 02:34:00
8:55 PM,30.2,26.6,86,30.14,10.0,SSE,4.6,-,N/A,,Clear,150,2013-11-08 02:55:00
9:15 PM,28.4,26.6,93,30.14,10.0,Calm,Calm,-,N/A,,Clear,0,2013-11-08 03:15:00
9:35 PM,28.4,26.6,93,30.14,10.0,Calm,Calm,-,N/A,,Clear,0,2013-11-08 03:35:00
9:55 PM,28.4,26.6,93,30.14,10.0,South,3.5,-,N/A,,Clear,180,2013-11-08 03:55:00
10:14 PM,28.4,26.6,93,30.13,10.0,SSE,5.8,-,N/A,,Clear,160,2013-11-08 04:14:00
10:35 PM,28.4,26.6,93,30.12,10.0,SSE,4.6,-,N/A,,Clear,160,2013-11-08 04:35:00
10:55 PM,26.6,26.6,100,30.12,10.0,SSE,5.8,-,N/A,,Clear,160,2013-11-08 04:55:00
11:14 PM,28.4,26.6,93,30.12,10.0,SSE,5.8,-,N/A,,Clear,160,2013-11-08 05:14:00
11:35 PM,26.6,26.6,100,30.11,10.0,South,6.9,-,N/A,,Clear,170,2013-11-08 05:35:00
11:55 PM,28.4,26.6,93,30.12,10.0,South,6.9,-,N/A,,Clear,170,2013-11-08 05:55:00